Location: Arbon
(43.0005°N, 0.7472°E)
Time: 10:45:03
(UTC+00:00)

Vanguard 2 Rocket - Pass Details

Date: 30 November 2020
Orbit: 554 x 3325 km, 32.9° (Epoch: 21 January)

Event Time Altitude Azimuth Distance (km) Brightness Sun altitude
Rises 05:14:16 0° 205° (SSW) 6,510 11.1 -20.2°
Reaches altitude 10° 05:19:06 10° 196° (SSW) 5,801 10.9 -19.3°
Maximum altitude 05:34:17 31° 143° (SE) 4,719 11.0 -16.6°
Drops below altitude 10° 05:49:47 10° 91° (E) 5,975 12.3 -13.9°
Sets 05:54:46 0° 82° (E) 6,732 12.6 -13.0°
